Regional Weather Roundup
Issued by NWS Pendleton, OR

Home | Current Version | Previous Version | Text Only | Print | Product List | Glossary On
Versions: 1 2 3 4 5 6 7 8 9 10 11 12 13 14 15 16 17 18 19 20 21 22 23 24 25 26 27 28 29 30 31 32 33 34 35 36 37 38 39 40 41 42 43 44 45 46 47 48 49 50
849
ASUS46 KPDT 241310
RWRPDT
PENDLETON REGIONAL WEATHER ROUNDUP
NATIONAL WEATHER SERVICE PENDLETON OREGON
500 AM PST FRI NOV 24 2017

NOTE: FAIR INDICATES FEW OR NO CLOUDS BELOW 12,000 FEET WITH NO
SIGNIFICANT WEATHER AND/OR OBSTRUCTIONS TO VISIBILITY.

# INDICATES UNOFFICIAL STATION AND DATA

WAZ520-241410-
EAST SLOPES OF WASHINGTON CASCADES

CITY            SKY/WX      TMP DP  RH  WIND    PRES   REMARKS
#BULLFROG       N/A         37  37  100 CALM    N/A
#CLE ELUM HS    N/A         39  34  82  W3      29.95R
#CLE ELUM LAKE  N/A         36  32  85  W5      30.00R
#EASTON DOT     N/A         36  33  89  N1      N/A
#ELK HTS DOT    N/A         38  37  96  W1      N/A
#GLENWOOD       N/A         40  37  89  S3      30.03R
#NELSON 3SW     N/A         34  33  96  CALM    30.20S
#NILE           N/A         32  31  96  CALM    29.28S
#TROUT LAKE 1NE N/A         38  36  92  W2      30.05R
#TROUT LAKE 1E  N/A         35  34  96  CALM    30.08R
$$

WAZ521-241410-
SIMCOE HIGHLANDS

CITY            SKY/WX      TMP DP  RH  WIND    PRES   REMARKS
#BICKLETON HS   N/A         N/A N/A N/A CALM    29.98R
#CENTERVILLE 1SWN/A         42  37  82  W7      30.04R
#GOLDENDALE 4W  N/A         42  29  60  W3      30.09R
#GOODNOE HILLS  N/A         42  38  86  SW6     N/A
#LYLE 6NE       N/A         43  41  93  SW10    30.06S
#PITT 4SE       N/A         38  37  96  W8      30.06S
$$

WAZ026-241410-
KITTITAS VALLEY

CITY            SKY/WX      TMP DP  RH  WIND    PRES   REMARKS
ELLENSBURG AP   PTCLDY      41  34  76  SW8     30.00R
#ELLENSBURG CWU N/A         41  36  82  NW3     29.96R
#ELLENSBURG 3NE N/A         39  34  82  N10     28.07R
#ELLENSBURG 1E  N/A         41  36  82  NW1     30.07R
#MANASTASH RDG  N/A         37  37  100 NW5     N/A
#RYEGRASS DOT   N/A         35  33  92  W8      N/A
$$

WAZ027-241410-
YAKIMA VALLEY

CITY            SKY/WX      TMP DP  RH  WIND    PRES   REMARKS
SUNNYSIDE AP    MOCLDY      33  32  96  CALM    30.04R
YAKIMA AIRPORT  MOCLDY      35  31  85  CALM    30.02R
YAKIMA-VAGABOND MOCLDY      34  30  85  CALM    30.00R
#DONALD 2NE     N/A         43  22  43  NE2     28.88R
#GRANDVIEW      N/A         37  32  82  CALM    29.99R
#MABTON         N/A         37  33  85  CALM    30.03R
#MOXEE 2E       N/A         46  N/A N/A E2      29.89R
#NACHES 2SW     N/A         38  34  85  CALM    29.98S
#OUTLOOK DOT    N/A         37  34  89  CALM    30.00R
#PARKER DOT     N/A         44  34  68  S1      30.01R
#TERRACE HTS    N/A         37  33  85  CALM    29.99R
#TOPPENISH      N/A         41  35  79  CALM    29.95R
#I82 S UMTANUM RN/A         36  29  75  NE2     N/A
#UNION GAP DOT  N/A         36  32  85  W1      30.05R
#W YAKIMA       N/A         39  33  79  CALM    30.03R
#WHITE SWAN 5E  N/A         47  36  65  CALM    30.01R
#WILEY CITY 3W  N/A         38  29  70  CALM    29.97R
#ZILLAH DOT     N/A         38  33  82  E5      N/A
$$

WAZ028-241410-
LOWER COLUMBIA BASIN...WASHINGTON

CITY            SKY/WX      TMP DP  RH  WIND    PRES   REMARKS
PASCO           PTCLDY      47  38  71  SW12    30.06R WCI 42
PROSSER AWOS    N/A         37  34  89  NE5     30.08R
RICHLAND AWOS   MOCLDY      46  39  76  MISG    30.06R
#BENTON CITY    N/A         41  34  76  S2      29.95R
#CONNELL 5N     N/A         35  33  92  S1      30.02R
#CONNELL 5NW    N/A         36  33  89  CALM    29.97R
#ELTOPIA 6NW    N/A         41  36  82  SW2     28.99R
#KAHLOTUS       N/A         41  37  86  W21G28  30.00S WCI 32
#KENNEWICK 3S   N/A         43  37  79  E9      30.03R
#PATERSON       N/A         42  38  86  CALM    30.05R
#PROSSER DOT    N/A         35  34  96  CALM    30.05R
#SAGEMOOR 2W    N/A         39  35  85  SW6     29.91R
#TOUCHET 2S     N/A         46  37  71  SW20G26 30.02R WCI 38
#WEST PASCO     N/A         45  39  79  CALM    30.03R
$$

WAZ029-241410-
FOOTHILLS OF THE BLUES...WASHINGTON

CITY            SKY/WX      TMP DP  RH  WIND    PRES   REMARKS
WALLA WALLA AP  CLEAR       46  36  68  S14     30.07R WCI 40
#CLYDE 6NW      N/A         39  35  85  S8      30.03R
#DAYTON SCHOOL  N/A         45  31  58  S15G25  30.06R WCI 38
#DELANEY DOT    N/A         46  36  68  S12     30.05R WCI 40
#LOWDEN 2SE     N/A         48  39  71  W7      30.03S
#PLEASANT VIEW 1N/A         38  36  92  S10     30.06R
#PRESCOTT       N/A         42  37  82  CALM    30.04R
#WHITMAN COLLEGEN/A         45  37  73  S3      30.12R
#WAITSBURG 5S   N/A         42  36  79  S8      30.14R
#WAITSBURG 6SSE N/A         44  34  68  SE7     30.07R
#WAITSBURG 8N   N/A         41  N/A N/A S8      30.06R
#WALLA WALLA 5E N/A         45  38  76  S10     N/A
#WHITMAN MISSIONN/A         47  38  71  CALM    30.08S
$$

WAZ030-241410-
BLUE MOUNTAINS...WASHINGTON

CITY            SKY/WX      TMP DP  RH  WIND    PRES   REMARKS
#DIXIE 5SE      N/A         40  34  79  S10     29.96R
$$

ORZ009-041-WAZ024-241410-
COLUMBIA RIVER GORGE

CITY            SKY/WX      TMP DP  RH  WIND    PRES   REMARKS
HOOD RIVER AP   PTCLDY      39  37  92  CALM    30.09S
THE DALLES AP   PTCLDY      43  37  79  E6      30.08S
#ARLINGTON AIRPON/A         40  35  82  S3      30.09R
#ARLINGTON HS   N/A         39  33  79  CALM    30.01R
#CELILO DOT     N/A         47  34  60  CALM    N/A
#LYLE           N/A         49  43  80  N3      30.10R
#MARYHILL       N/A         42  39  89  N6      N/A
#MURDOCK        N/A         45  41  86  E1      30.05R
#RUFUS DOT      N/A         46  N/A N/A N3      N/A
#SMITHVILLE     N/A         43  39  86  CALM    30.03R

$$

ORZ510-241410-
NORTH CENTRAL OREGON

CITY            SKY/WX      TMP DP  RH  WIND    PRES   REMARKS
#ANTELOPE       N/A         30  27  88  CALM    29.93R
#CHENOWITH 1W   N/A         41  38  89  NW15    N/A    WCI 33
#COW CYN RST AREN/A         36  N/A N/A S2      N/A
#DUFUR          N/A         32  30  92  CALM    30.04R
#DUFUR 9E       N/A         40  34  79  SW9     30.10R
#GRASS VALLEY 1SN/A         37  33  85  SW3     30.07R
#KENT DOT       N/A         37  25  61  SW10    N/A
#MAUPIN SCHOOL  N/A         43  35  73  CALM    30.13S
#SHANIKO 5WSW   N/A         34  N/A N/A S13     N/A    WCI 25
#SHANIKO 4NW    N/A         34  28  78  SW7     30.03S
#TYGH VALLEY 2NEN/A         44  37  76  N3      30.06S
#WAPANITIA AIRPON/A         41  35  79  W3      30.08S
#WASCO DOT      N/A         37  35  92  E1      N/A
#WASCO 5NE      N/A         39  27  62  CALM    30.07R
$$

ORZ511-241410-
CENTRAL OREGON

CITY            SKY/WX      TMP DP  RH  WIND    PRES   REMARKS
BEND AIRPORT    CLEAR       34  30  85  SE7     30.09R
PRINEVILLE AP   CLEAR       32  27  82  CALM    30.10R
REDMOND AIRPORT CLEAR       27  25  92  SE6     30.08S
#ASHWOOD SCHOOL N/A         32  28  85  CALM    30.04F
#BEND 1SW       N/A         33  30  89  SW1     N/A
#BEND-AWBREY    N/A         34  28  78  E1      30.04R
#BEND-KIM LN    N/A         32  29  89  S6      29.98R
#CULVER         N/A         37  30  75  S8      29.91S
#CULVER 8W      N/A         39  30  70  SW3     30.07R
#LAKE BILLY CHINN/A         41  N/A N/A S9      30.17R
#MADRAS 4S      N/A         34  -4  19  SW7     N/A
#POWELL BUTTE   N/A         37  24  59  S3      30.02S
#PRINEVILLE     N/A         31  26  81  CALM    30.14R
#PRINEVILLE 3N  N/A         31  27  85  E8      30.05R
#WARM SPRINGS   N/A         35  29  78  CALM    29.96R

$$


ORZ509-241410-
EAST SLOPES OF OREGON CASCADES

CITY            SKY/WX      TMP DP  RH  WIND    PRES   REMARKS
SISTERS AWOS    N/A         36  28  72  CALM    N/A
#BLUE BOX PASS  N/A         33  N/A N/A NW1     N/A
#CAMP SHERMAN   N/A         37  32  82  N1      30.16R
#LA PINE 4NW    N/A         31  28  88  CALM    30.08R
#LAVA BUTTE DOT N/A         31  25  78  CALM    N/A
#SISTERS ODOT   N/A         35  26  69  CALM    N/A
#SISTERS 3N     N/A         31  25  78  CALM    30.09S
#SUNRIVER       N/A         33  28  82  S3      30.06R
#TUMALO 3W      N/A         33  28  82  E5      29.92R
#WANOGA BUTTE D N/A         27  18  68  W6      N/A

$$

ORZ044-241410-
LOWER COLUMBIA BASIN...OREGON

CITY            SKY/WX      TMP DP  RH  WIND    PRES   REMARKS
HERMISTON       PTCLDY      42  35  76  SW9     30.08R
#BOARDMAN SCHOOLN/A         43  36  76  S6      30.06S
#BOARDMAN 8SW   N/A         40  36  85  S5      30.08R
#ECHO 8SW       N/A         44  36  73  SW5     30.08R
#I-84 EX 198 DOTN/A         42  32  67  NE8     N/A
#IONE SCHOOL    N/A         46  32  58  S10     30.09R
#UMATILLA       N/A         43  34  70  CALM    30.00R
$$

ORZ507-241410-
NORTHERN FOOTHILLS OF THE BLUES

CITY            SKY/WX      TMP DP  RH  WIND    PRES   REMARKS
PENDLETON AIRPT CLEAR       38  33  82  S9      30.07R
#ADAMS 3WNW     N/A         35  32  89  CALM    30.07R
#ATHENA         N/A         39  33  79  CALM    30.09R
#HELIX SCHOOL   N/A         37  34  89  N6      30.06R
#HELIX 3N       N/A         39  35  85  SW10    30.03R
#HOLDMAN 5SE    N/A         40  36  85  S3      30.06R
#HOLDMAN 6E     N/A         40  35  82  S8      29.87R
#M-F GROVE ELEM N/A         44  34  68  S3      30.03F
#M-FREEWATER 5SEN/A         45  35  68  SW1     30.06R
#PENDLETON DNTN N/A         38  30  73  CALM    30.07R
#PDT AQUATIC CTRN/A         39  33  79  CALM    30.12S
#PDT SUNRIDGE   N/A         37  34  89  CALM    30.09R
#PENDLETON 6SE  N/A         42  34  73  SW10    30.03R
#PENDLETON 7NW  N/A         39  33  79  CALM    30.13R
#PILOT ROCK 1S  N/A         37  29  72  S6      30.08R
#PILOT ROCK     N/A         35  31  85  CALM    30.09R
#TUTUILLA       N/A         38  33  82  CALM    30.11R
#UMAPINE 2E     N/A         45  38  76  E2      30.04R
#WESTON SCHOOL  N/A         42  33  70  W1      30.01R

$$

ORZ508-241410-
SOUTHERN FOOTHILLS OF THE BLUES

CITY            SKY/WX      TMP DP  RH  WIND    PRES   REMARKS
LEXINGTON       CLEAR       41  34  76  S6      30.12R
#AJAX           N/A         41  28  59  N6      30.21R
#HEPPNER EOC    N/A         41  33  73  CALM    30.00R
#HEPPNER 4NE    N/A         38  32  79  SW3     30.05R
#LEXINGTON 2SE  N/A         40  33  76  SE5     30.04R
#MIKKALO        N/A         39  32  76  SE2     30.16R
#OLEX 4N        N/A         41  36  82  S7      30.06R
#RUGGS 5NE      N/A         36  30  79  SW5     30.20S
#RUGGS 2SW      N/A         38  30  73  SW5     30.06R

$$

ORZ502-503-241410-
BLUE MOUNTAINS

CITY            SKY/WX      TMP DP  RH  WIND    PRES   REMARKS
MEACHAM         MOCLEAR     31  29  92  CALM    30.04R
#BATTLE MTN DOT N/A         31  27  85  CALM    N/A
#GRANITE        N/A         30  25  81  E1      30.09R
#GREENHORN 9SW  N/A         36  36  100 CALM    30.02R
#HARDMAN 10S    N/A         32  27  82  CALM    30.15R
#LADD CYN SMT   N/A         36  33  89  N6      N/A
#LADD CREEK ODOTN/A         35  28  75  NE3     N/A
#LONG CREEK HS  N/A         34  34  100 CALM    30.05R
#N POWDER DOT   N/A         36  32  85  NE8     N/A
#PIKES PEAK     N/A         37  31  79  CALM    27.99S
#TOLLGATE       N/A         30  29  96  SW6     29.86R
#TROY SCHOOL    N/A         40  37  89  SW1     29.91R
#UKIAH          N/A         30  28  92  CALM    29.94R
#WESTON 4E      N/A         36  33  89  SE1     30.01R
$$

ORZ505-241410-
JOHN DAY BASIN

CITY            SKY/WX      TMP DP  RH  WIND    PRES   REMARKS
JOHN DAY        PTCLDY      39  37  92  CALM    30.05R
#ANTELOPE 9ESE  N/A         41  31  67  CALM    N/A
#DAYVILLE SCHOOLN/A         40  35  82  CALM    30.03R
#MITCHELL 8NW   N/A         37  26  64  E2      30.08R
#MONUMENT HS    N/A         35  31  85  CALM    30.03R
#MT. VERNON 5SE N/A         35  32  89  CALM    29.99R
#WINLOCK        N/A         36  28  72  CALM    30.03R
$$

ORZ506-241410-
OCHOCO AND JOHN DAY HIGHLANDS

CITY            SKY/WX      TMP DP  RH  WIND    PRES   REMARKS
#HORSE RIDGE DO N/A         30  27  88  CALM    N/A
#IZEE 6NW       N/A         32  30  92  CALM    N/A
#PAULINA ODOT   N/A         37  23  56  W8      N/A
#PINE MTN OBS   N/A         28  22  78  W3      N/A
#SENECA         N/A         34  N/A N/A W1      N/A
#SENECA 9NW     N/A         32  30  92  CALM    29.96R
$$

ORZ049-241410-
GRANDE RONDE VALLEY

CITY            SKY/WX      TMP DP  RH  WIND    PRES   REMARKS
LA GRANDE       CLEAR       38  33  82  NW10    30.08R
#COVE SCHOOL    N/A         38  34  85  CALM    30.07R
#COVE 6NW       N/A         38  33  82  CALM    30.03R
#ELGIN 3N       N/A         32  27  82  CALM    30.49R
#ELGIN 1E       N/A         38  31  76  CALM    N/A
#IMBLER SCHOOL  N/A         40  32  73  CALM    30.03R
#ISLAND CITY 4N N/A         44  43  96  CALM    30.13S
#LADD CYN DOT   N/A         38  37  96  NE3     N/A
#UNION 1S       N/A         39  35  85  CALM    30.02R
$$

ORZ050-241410-
WALLOWA COUNTY

CITY            SKY/WX      TMP DP  RH  WIND    PRES   REMARKS
JOSEPH AIRPORT  CLOUDY      34  32  92  CALM    30.05R
#ENTERPRISE HS  N/A         35  33  92  CALM    29.88R
#IMNAHA SCHOOL  N/A         43  38  82  CALM    30.06R
#IMNAHA 10S     N/A         37  35  92  CALM    30.03R
#JOSEPH         N/A         35  31  85  CALM    30.48R
#JOSEPH 3N      N/A         36  30  79  W3      30.06R
#JOSEPH 3W      N/A         32  32  100 CALM    30.48R
#LOSTINE        N/A         34  31  89  CALM    29.82R
#LOSTINE 3SE    N/A         33  31  92  CALM    30.08R
#MT HOWARD 8000 N/A         25  12  57  W7      29.94F
#PROMISE 1S     N/A         35  30  82  SW5     30.13R



$$



USA.gov is the U.S. government's official web portal to all federal, state and local government web resources and services.